Powrót do katalogu

COSMOS 886 DEB

AktywnyLEO
NORAD 9960·DEBRIS·🇷🇺 Russia

Wystrzelony Dec 27, 1976 z Baikonur Cosmodrome

Loading…

Następne Przeloty (najbliższe 24 godziny)

TLE

ŚwieżeSource: Space-Track

Epoka: Sep 14, 2026, 02:58 UTC

1 09960U 76126BA  26257.12395252  .00000167  00000-0  17011-3 0  9994
2 09960  65.8672 158.7970 0856207 288.2190  62.7531 12.89834910289700

Śledź COSMOS 886 DEB w czasie rzeczywistym z AllMySat

Download on the App Store